Location: Newark
(29.9790°N, 31.1340°E)
Time: 14:08:45
(UTC+00:00)

Tiros 1 - Pass Details

Date: 26 January 2020
Orbit: 630 x 664 km, 48.4° (Epoch: 28 February)

Event Time Altitude Azimuth Distance (km) Brightness Sun altitude
Rises 18:18:20 0° 292° (WNW) 2,984 11.4 -37.0°
Reaches altitude 10° 18:21:24 10° 272° (W) 2,072 10.5 -37.7°
Enters shadow 18:23:15 16° 250° (WSW) 1,732 9.9 -38.1°
